User: anonymous   Login
Location: Unspecified
(0.0000°N, 0.0000°E)
Time: 00:05:21
(UTC+00:00)
Language:

KOMPSAT-2 - Orbit

View from above orbital plane
View from above orbital plane
View from above satellite
View from above satellite

Ground track
Ground track

The orbit data is extracted from the following two-line orbital elements,

1 29268U 06031A   18112.53344220  .00000172  00000-0  43271-4 0  9994
2 29268  98.0731  10.2693 0019419 111.1874 249.1407 14.62346629626201
Epoch (UTC): 22 April 2018 12:48:09
Eccentricity: 0.0019419
inclination: 98.0731°
perigee height: 672 km
apogee height: 699 km
right ascension of ascending node: 10.2693°
argument of perigee: 111.1874°
revolutions per day: 14.62346629
mean anomaly at epoch: 249.1407°
orbit number at epoch: 62620

The dashed part of the orbit path shows where the satellite is in the earth's shadow,  

DLR